Terug naar catalogus

THEA

ActiefWetenschapSSO
NORAD 43796·PAYLOAD·🇺🇸 United States

Gelanceerd Dec 3, 2018 vanaf Vandenberg Space Force Base

Loading…

Volgende Passages (komende 24 uur)

TLE

VersSource: Space-Track

Epoch: Sep 14, 2026, 03:58 UTC

1 43796U 18099AQ  26257.16571565  .00014040  00000-0  37929-3 0  9996
2 43796  97.4359 327.8685 0005850 336.2093  23.8881 15.37845585426352

Volg THEA in realtime met AllMySat

Download on the App Store